GFSNGP_sfc_thetae_273.txt.gz
Theta_e
296 298 306 305 305 304 301 300 301 304 306 312 316 318 322 327 330 327 328 326 325 322 322 323 323 322 321 319 319 318 316 315 314 314 315 315 315 316 316 316 316 315 315 315
301 306 307 304 305 304 305 306 306 307 308 315 317 321 320 326 329 326 327 327 327 324 324 323 322 319 317 316 315 315 313 312 313 314 314 314 316 315 315 315 314 313 313 313
297 303 303 299 305 305 308 308 308 304 308 314 316 321 321 324 329 327 327 327 322 321 319 319 318 317 314 314 313 312 311 312 313 313 314 319 318 316 314 314 314 311 311 312
295 299 293 302 309 312 311 314 312 315 316 316 319 320 321 325 328 327 327 322 319 318 317 315 315 314 313 312 311 310 310 311 313 313 316 317 315 314 311 312 311 309 309 310
297 295 300 307 308 310 309 311 318 318 324 326 325 323 320 329 328 325 320 318 318 318 315 314 314 312 311 310 310 310 310 310 312 312 311 311 311 308 307 307 307 308 307 307
297 296 295 303 310 316 316 308 321 324 325 323 323 313 315 324 321 319 319 318 315 312 314 314 312 311 309 308 308 308 310 311 311 311 309 308 308 307 305 305 305 306 306 305
298 297 302 309 314 315 302 305 324 326 326 324 319 318 318 318 318 320 316 313 312 312 313 312 311 310 308 307 307 309 314 314 312 311 309 307 306 306 305 304 303 302 302 302
299 297 296 314 313 310 313 317 327 327 326 323 316 317 316 316 316 314 311 311 311 310 311 312 311 310 307 307 309 309 310 310 309 309 311 309 305 305 305 304 302 301 300 301
303 303 308 312 312 313 319 325 326 325 323 319 317 315 315 313 312 311 310 308 308 308 308 310 311 310 307 308 308 308 308 307 306 308 309 307 306 305 304 303 302 301 300 299
304 309 310 314 315 317 321 321 325 323 320 319 315 313 310 308 307 307 307 306 306 308 309 309 309 310 309 309 309 307 306 305 305 304 305 304 305 305 304 303 302 302 301 299
306 310 314 317 319 322 322 322 321 322 320 318 314 309 307 305 305 305 305 305 305 305 305 305 305 305 306 307 307 306 305 305 304 303 303 304 304 304 305 305 305 304 302 300
304 310 309 313 320 323 321 321 321 319 317 317 312 308 306 304 305 305 303 303 303 303 305 305 304 303 304 305 305 302 301 302 303 303 301 302 303 304 305 306 305 301 301 302
312 316 316 319 322 323 321 321 321 320 317 311 309 307 306 304 303 306 303 303 303 303 305 304 302 301 303 304 304 302 300 301 301 298 298 300 300 301 300 301 302 301 299 299
319 320 316 318 316 321 320 317 315 313 312 310 308 308 307 306 305 304 302 303 304 305 304 303 303 304 306 305 303 301 301 305 302 299 298 300 297 297 298 297 297 298 299 299
320 320 318 318 318 316 316 315 312 310 309 308 309 308 307 304 303 303 303 303 304 303 304 304 304 305 306 306 302 301 302 302 302 300 299 300 299 298 298 298 297 296 296 298
321 319 319 317 315 315 314 313 309 307 308 308 307 306 305 305 304 303 302 303 303 302 303 305 305 306 307 307 307 306 305 309 310 304 303 300 300 301 300 300 299 297 297 296
318 315 315 314 313 313 312 312 310 308 308 308 307 306 306 304 302 302 302 303 303 303 304 304 305 306 306 307 307 307 307 307 311 304 304 301 301 303 302 301 300 299 299 299
322 321 319 317 314 313 312 312 310 309 308 309 308 307 305 304 303 302 303 303 304 304 305 306 307 307 308 308 307 307 309 307 303 304 304 304 304 305 304 303 302 301 301 301
321 320 319 318 316 314 313 312 311 310 310 309 308 306 305 304 303 303 303 304 303 303 306 307 313 315 311 312 314 309 309 306 303 305 305 306 305 305 307 306 304 304 303 303
320 320 319 317 316 315 312 311 310 310 310 309 307 304 303 303 304 305 305 305 306 307 309 310 308 307 307 308 316 311 307 304 303 306 307 307 305 305 307 304 307 308 305 304
320 320 319 316 314 313 313 311 310 308 308 309 307 305 304 304 305 304 303 302 306 307 308 313 309 308 307 311 311 306 304 302 303 303 304 306 306 306 306 309 309 307 305 304
319 317 315 314 312 311 311 310 310 309 307 306 306 305 305 304 303 304 304 305 306 309 310 309 309 312 310 317 309 306 303 302 302 303 304 306 306 308 309 307 306 306 305 304
317 315 314 312 311 309 310 310 309 308 307 306 306 305 305 305 305 304 304 307 307 309 309 306 308 311 312 309 308 306 305 304 304 304 305 305 306 306 304 303 303 304 303 304
315 314 312 312 312 311 308 307 308 307 307 306 307 307 306 305 306 307 307 307 308 309 310 310 309 311 311 307 307 306 305 305 305 305 304 301 303 303 302 302 302 303 303 302
314 313 313 312 311 309 308 307 307 307 307 306 307 307 307 307 308 308 309 310 309 309 312 311 311 311 310 309 310 308 307 304 303 303 302 301 299 298 298 300 300 299 298 297
313 313 312 312 310 310 308 308 306 305 305 305 306 308 309 309 309 308 306 307 309 309 308 311 311 310 310 311 310 306 302 302 301 302 299 298 297 297 297 298 297 296 294 293
311 308 310 309 308 309 309 306 306 306 306 307 307 309 311 310 310 309 306 306 307 308 308 310 311 310 311 309 304 302 301 301 299 300 298 296 295 295 296 295 294 293 292 291

GFSNGP_sfc_thetae_276.txt.gz
Theta_e
294 296 299 299 304 302 299 299 301 303 305 310 314 318 320 321 326 326 324 324 323 322 323 324 323 321 320 319 318 317 316 315 315 316 317 318 318 318 318 318 317 317 316 316
294 300 304 302 304 302 304 304 305 305 306 313 317 321 321 326 326 325 324 324 322 323 323 321 318 317 317 316 315 315 314 314 315 316 317 318 317 317 317 316 316 314 314 314
291 301 302 298 304 304 305 307 307 304 308 317 316 319 321 326 328 326 325 324 322 322 322 319 317 316 314 314 314 313 314 315 315 315 316 316 316 314 313 312 312 311 310 311
293 297 292 301 309 310 309 311 310 312 313 318 319 321 322 329 329 327 328 323 322 320 318 316 316 314 314 313 313 312 313 313 314 315 314 314 312 310 310 310 309 309 309 309
295 294 298 306 308 310 307 307 315 314 316 320 321 320 320 330 330 328 323 321 321 320 316 315 314 313 312 311 311 311 311 312 313 313 312 312 311 310 309 308 308 307 307 307
296 294 294 303 308 314 314 302 319 322 321 320 320 313 314 327 322 320 320 319 316 316 315 313 312 312 310 309 310 311 313 313 313 313 311 310 310 310 309 308 307 307 306 305
296 296 300 307 312 314 302 303 321 325 322 322 319 318 321 320 318 318 317 314 315 316 313 312 311 310 308 309 310 312 313 315 315 314 312 311 310 310 309 308 307 306 305 305
297 295 296 311 313 308 311 316 326 328 326 322 316 318 319 317 313 312 311 313 314 313 312 312 311 309 308 309 312 313 313 312 312 313 313 312 310 310 309 308 307 307 306 305
301 301 306 311 313 315 318 324 327 328 326 320 315 315 317 312 311 311 311 311 313 313 311 311 311 310 309 311 311 311 312 311 310 310 311 310 309 309 307 308 306 306 306 305
305 306 310 312 316 317 323 327 329 328 321 319 315 315 312 311 309 309 309 309 310 311 311 310 311 311 311 312 312 311 310 310 310 308 308 308 308 308 308 308 307 307 306 306
305 309 312 316 318 321 324 325 323 323 321 316 314 312 311 309 308 308 307 308 311 311 310 308 308 309 310 311 311 310 309 308 307 307 306 305 307 308 309 310 308 308 308 307
305 309 308 311 319 322 322 321 321 317 314 315 314 310 309 308 307 307 306 306 307 306 306 306 306 307 308 309 309 307 306 305 305 306 303 304 305 306 305 305 303 301 300 303
312 315 315 319 321 322 320 320 320 317 313 310 309 309 309 305 306 307 305 305 305 306 306 305 305 305 307 308 308 307 306 306 305 304 303 304 304 303 303 304 302 300 298 298
319 318 316 316 316 320 320 318 316 314 312 310 307 307 307 305 306 305 304 304 305 306 306 304 305 307 310 309 307 307 307 305 306 305 303 303 304 303 301 301 302 303 301 300
316 318 317 316 315 313 314 313 310 308 307 306 308 306 306 305 304 304 304 305 306 306 304 305 307 308 310 309 307 308 307 307 307 307 306 305 304 304 304 304 303 303 303 302
318 319 317 314 314 314 313 311 308 307 307 307 306 306 306 306 305 304 304 304 304 303 305 306 307 309 310 312 312 311 311 311 312 309 308 308 305 305 306 307 306 306 304 304
317 315 315 313 313 312 311 311 310 309 308 307 306 306 306 305 304 303 303 304 305 306 307 307 308 310 311 310 310 310 310 311 313 308 309 308 307 307 308 308 307 307 306 306
321 320 320 316 313 311 310 309 309 309 308 307 307 306 305 304 303 302 303 304 305 306 307 308 310 311 311 312 311 311 310 311 311 308 309 309 309 309 309 309 308 307 309 308
320 318 317 316 315 314 310 309 309 309 308 308 307 306 306 305 304 304 304 304 305 306 309 310 312 316 314 313 317 313 312 312 310 308 308 308 309 310 309 309 310 310 310 309
319 319 317 316 315 313 310 311 310 309 309 308 306 305 304 303 304 304 305 305 307 309 312 314 313 312 312 312 314 314 314 312 308 307 307 308 310 309 310 305 310 311 311 310
317 317 315 316 316 314 312 311 310 308 309 308 307 305 305 304 305 306 306 306 310 310 311 313 313 313 312 313 313 312 310 309 307 306 306 307 309 310 311 311 310 309 309 309
318 316 316 315 314 312 311 311 310 309 309 307 307 306 305 305 305 306 308 308 310 309 311 313 313 314 315 317 312 310 310 309 308 306 306 309 310 311 309 307 307 308 308 308
318 316 315 313 312 311 309 309 310 310 308 307 307 306 306 307 306 306 306 311 310 310 312 312 312 312 313 312 311 311 310 310 308 308 309 309 309 308 307 306 306 307 305 302
316 316 314 313 311 309 307 307 308 308 308 308 308 308 307 306 308 309 310 308 308 310 312 313 313 312 311 313 312 312 310 309 310 310 309 301 306 304 304 306 304 304 301 298
314 312 312 312 310 309 308 307 307 307 307 308 308 308 309 310 310 311 312 312 309 310 314 311 311 311 313 313 313 313 311 310 308 308 307 305 302 302 302 304 302 300 298 297
313 312 312 312 310 310 309 309 307 307 307 307 308 309 310 311 312 312 312 309 313 310 312 313 312 314 315 315 314 311 307 306 307 306 303 302 302 301 302 301 300 298 297 296
310 308 310 309 309 310 310 309 308 307 308 309 309 310 312 313 313 313 309 313 312 312 312 312 312 312 314 314 309 307 306 306 303 305 302 301 300 300 301 299 298 297 296 295

GFSNGP_sfc_thetae_279.txt.gz
Theta_e
305 305 306 306 306 308 308 311 308 311 312 320 324 327 330 331 333 333 331 332 334 332 332 332 330 329 328 326 326 325 324 324 324 325 325 324 324 323 323 322 321 322 322 322
302 304 304 304 308 309 310 310 311 313 313 322 327 329 328 331 332 332 332 332 332 332 332 330 328 327 326 324 323 324 323 322 324 324 324 322 321 320 320 319 319 319 318 318
301 306 306 302 307 310 312 313 314 311 317 324 324 326 327 330 333 333 333 332 331 331 331 328 326 326 323 322 323 323 322 322 322 323 321 319 319 319 317 316 317 316 316 316
304 307 297 306 316 315 313 315 317 318 321 325 326 329 330 333 334 334 333 331 331 331 328 326 325 323 323 322 322 321 321 321 321 320 319 319 319 317 316 315 315 314 314 315
305 303 306 310 314 314 314 314 319 320 323 325 327 328 328 333 335 336 335 332 332 331 327 325 323 322 321 320 320 320 319 320 320 319 318 318 317 317 316 315 314 314 314 314
307 303 300 312 318 321 320 310 322 323 324 324 325 319 324 334 338 338 334 331 330 327 325 323 321 321 320 319 319 319 320 320 321 319 317 316 318 317 318 318 316 314 314 314
306 306 309 317 317 322 309 312 324 326 327 326 325 328 332 336 335 334 332 329 328 326 323 321 321 320 318 319 319 320 322 323 322 321 319 320 320 320 319 318 319 318 318 317
306 305 302 319 319 316 325 325 328 328 329 329 329 331 332 333 330 328 326 324 325 322 320 320 319 319 318 318 321 322 321 321 321 322 320 319 320 321 320 319 318 318 317 316
311 310 318 323 325 327 327 330 331 330 331 331 328 329 329 327 325 324 324 324 323 321 319 319 318 319 318 320 322 322 320 319 319 320 320 320 319 319 317 318 315 315 312 312
314 319 318 321 324 324 329 334 335 333 330 330 327 328 326 324 323 323 322 321 321 320 319 317 318 320 321 321 322 320 319 319 320 320 318 319 317 317 316 314 312 311 310 310
316 321 321 323 324 326 331 336 335 331 329 326 328 326 325 322 321 321 321 321 321 320 319 318 319 319 320 321 321 319 319 318 318 317 317 316 317 316 315 317 312 311 311 312
316 320 321 321 325 329 332 332 331 329 326 327 328 323 322 320 320 319 319 320 319 320 318 317 317 318 319 320 319 317 316 315 315 315 314 315 314 314 307 305 303 301 301 304
322 324 323 325 327 330 332 331 330 328 326 324 324 323 322 318 318 316 318 318 318 317 316 316 316 316 317 318 317 316 316 315 314 312 314 312 313 313 311 311 302 300 299 298
325 325 323 324 325 328 329 327 324 324 323 322 322 321 319 317 315 316 316 317 317 316 315 314 314 314 317 318 317 316 316 306 316 317 316 315 315 315 313 312 313 314 306 302
324 326 324 325 325 323 322 321 319 318 317 317 319 318 317 315 314 315 316 316 316 315 313 314 315 317 319 317 316 316 317 319 319 318 317 315 317 317 315 315 315 315 315 310
322 322 322 320 321 320 320 319 316 315 316 316 316 317 316 316 315 314 315 315 314 311 313 315 317 319 321 321 320 319 321 316 316 319 317 318 318 316 316 316 317 316 315 314
320 319 319 318 318 318 319 318 317 315 315 316 315 315 315 314 313 313 314 316 317 316 316 317 318 320 320 320 319 319 319 319 318 319 317 317 317 317 317 317 316 315 314 315
328 327 325 320 316 315 315 315 315 316 316 315 315 315 314 313 313 314 314 315 315 316 317 319 320 321 321 321 321 320 319 319 318 318 317 316 317 317 316 315 315 315 314 316
327 324 325 322 319 315 314 315 316 316 315 316 315 314 315 315 314 314 313 313 314 315 317 320 317 317 322 323 320 321 320 319 318 317 316 313 315 315 315 314 315 314 313 312
323 322 322 319 318 317 314 315 314 316 316 316 316 314 313 314 314 314 314 314 316 317 322 321 321 322 323 322 318 320 320 319 317 317 316 314 315 315 316 310 312 312 311 311
322 322 320 319 319 318 317 317 317 315 316 316 315 314 314 314 315 315 314 312 318 319 320 318 322 321 322 321 320 319 317 317 317 316 315 314 315 317 314 312 311 310 309 310
322 322 322 321 320 318 318 318 317 316 315 316 317 316 315 313 315 315 318 317 319 310 318 320 322 320 321 318 319 318 318 318 317 316 317 317 316 313 312 310 308 308 309 308
324 323 323 321 320 318 317 318 318 317 316 317 316 316 315 313 314 313 313 320 319 315 318 320 317 314 314 318 321 320 319 318 317 318 316 315 314 311 308 308 308 308 307 305
324 324 322 320 321 317 316 317 317 318 319 319 318 318 316 314 315 318 319 311 310 312 318 320 317 313 311 321 320 321 320 319 318 315 314 304 311 309 308 309 308 307 305 302
322 320 315 315 316 317 317 317 317 317 317 317 317 317 319 319 317 318 319 320 311 313 321 315 312 311 319 321 321 322 321 318 316 315 313 310 308 306 307 309 307 304 304 303
321 319 319 319 319 317 316 316 315 316 316 315 316 317 318 319 320 320 321 315 320 314 319 320 320 321 322 323 323 319 316 314 314 312 309 308 308 306 307 306 305 304 303 302
318 312 317 316 317 317 317 316 315 315 316 316 315 318 319 319 320 319 313 321 320 321 322 322 319 318 322 321 318 316 315 314 308 310 309 307 306 306 306 306 305 304 303 302

GFSNGP_sfc_thetae_285.txt.gz
Theta_e
309 310 311 310 309 310 309 310 308 311 312 317 326 331 337 341 343 342 341 341 343 343 342 343 340 341 342 339 338 337 335 333 332 333 332 331 330 329 329 328 327 327 326 324
307 309 309 307 309 310 310 311 312 312 313 321 330 336 338 340 341 340 341 341 343 343 342 341 341 341 339 337 335 334 332 331 332 331 330 329 328 327 326 324 324 325 324 321
304 309 308 304 308 309 311 313 313 310 315 322 323 334 338 341 341 340 342 342 343 342 342 341 340 339 336 335 334 332 331 331 330 329 328 327 325 324 323 323 323 323 322 322
305 308 299 309 315 313 311 312 315 315 318 324 325 334 341 344 342 341 342 344 344 343 343 342 339 336 336 333 332 330 329 328 328 327 326 325 324 323 323 322 322 322 321 321
306 305 309 310 313 313 311 311 316 317 319 328 331 337 339 344 344 343 345 346 345 345 343 340 336 335 333 330 329 328 326 326 326 326 325 324 322 323 323 323 323 322 323 321
310 305 302 312 316 319 318 308 318 319 322 327 333 328 333 343 343 344 346 346 344 343 339 337 335 334 332 329 327 326 326 324 325 326 325 323 324 324 325 325 323 323 323 324
308 307 312 318 319 320 308 311 320 322 324 329 331 332 341 342 343 346 344 344 343 340 336 335 335 333 330 328 326 327 327 326 325 325 325 325 325 325 325 325 326 325 323 324
309 307 304 321 319 315 320 323 323 325 326 330 335 337 340 341 343 344 343 342 340 337 335 334 334 332 328 326 327 328 327 326 325 326 324 323 325 326 325 326 326 324 323 320
312 311 323 324 324 326 330 331 333 331 327 336 336 339 340 341 343 342 342 339 339 336 334 333 333 330 326 327 327 327 326 325 325 326 324 324 324 324 323 325 320 321 317 316
314 319 317 322 326 329 332 330 334 336 332 337 338 339 339 341 342 341 340 339 338 334 332 330 330 329 328 327 326 325 324 324 324 323 323 323 322 321 321 320 317 316 316 316
318 320 321 322 331 334 334 333 333 337 337 338 340 340 342 342 342 341 339 337 336 333 331 328 328 327 326 326 326 324 323 322 321 319 320 321 322 321 319 322 314 314 314 315
314 330 331 332 335 335 333 333 334 336 338 341 341 341 343 341 341 338 337 336 334 333 330 327 326 326 325 326 326 324 321 319 318 318 319 320 320 321 309 308 307 305 303 308
322 332 332 333 334 336 335 335 337 338 341 341 342 341 341 338 337 332 336 335 334 332 329 327 326 325 326 327 326 323 321 320 317 315 318 320 320 319 317 312 305 303 301 301
330 330 328 331 331 336 335 337 337 341 342 341 340 341 339 337 335 337 334 334 334 331 328 325 324 324 326 326 325 324 322 312 320 320 320 320 320 321 318 317 317 319 305 303
327 328 329 333 335 335 337 339 338 337 338 338 340 338 337 331 332 335 336 333 331 327 324 323 321 322 325 324 322 322 320 317 319 321 321 319 319 319 318 318 319 320 319 308
327 327 328 331 332 334 335 336 337 336 337 337 336 335 334 335 334 333 332 329 324 320 321 320 321 322 323 323 321 319 320 321 318 318 320 320 319 319 318 319 319 319 319 319
324 324 326 329 332 333 332 336 337 336 336 335 335 335 335 333 330 327 326 325 324 322 321 321 322 324 323 322 320 319 320 320 323 318 318 319 319 318 319 318 317 318 318 315
328 331 333 334 333 333 333 335 335 336 335 334 334 329 325 327 325 325 323 321 318 321 322 324 324 323 323 322 321 320 319 320 321 320 320 320 320 319 319 318 319 317 316 315
327 329 333 333 335 335 333 334 332 335 334 333 330 328 328 327 325 321 320 319 319 319 320 324 323 322 322 324 323 323 321 320 320 320 320 320 320 321 319 318 318 316 315 313
329 333 335 334 334 333 332 333 332 329 329 329 328 328 325 324 323 322 321 319 320 320 324 322 321 324 325 326 325 322 321 320 319 320 320 319 320 321 318 312 315 314 313 312
330 334 334 331 330 331 330 330 329 329 330 330 328 326 323 321 321 321 319 315 321 322 323 321 323 322 323 324 322 321 320 320 321 320 320 321 320 319 317 315 314 313 311 311
331 331 331 330 328 327 328 328 330 330 328 329 327 324 320 319 322 320 322 320 322 315 322 321 323 323 323 323 321 320 321 321 323 322 322 321 319 317 314 313 312 311 311 311
332 333 331 328 327 326 327 327 327 327 326 325 323 322 319 318 318 317 316 324 322 318 321 321 319 321 321 321 321 323 323 322 322 321 320 320 319 315 313 312 311 311 310 309
334 331 328 328 329 328 327 329 328 327 327 325 324 322 320 317 318 320 324 316 315 315 320 321 320 319 315 321 323 324 325 323 323 320 321 306 316 317 313 312 311 311 309 308
333 334 331 328 325 327 328 327 326 326 325 324 323 323 322 320 318 320 322 322 312 317 321 314 318 317 321 322 324 326 324 323 320 318 316 316 314 313 311 311 311 311 309 309
332 330 330 329 326 325 325 325 321 322 322 320 320 320 319 320 322 322 322 318 320 317 321 322 321 322 323 324 328 324 322 321 319 318 314 316 315 312 311 311 310 310 309 308
332 322 330 328 328 327 326 324 323 321 321 320 318 319 321 322 321 320 317 321 320 320 322 323 320 321 323 324 324 323 322 322 309 316 316 316 313 312 311 310 310 310 309 309

GFSNGP_sfc_thetae_288.txt.gz
Theta_e
308 309 309 309 309 310 308 309 307 309 312 322 323 325 336 340 342 342 343 343 343 343 343 344 342 345 345 342 342 339 337 335 335 336 334 333 332 331 329 328 328 329 324 321
305 308 308 306 309 310 310 310 310 310 310 318 331 340 340 341 341 341 341 342 343 346 343 342 341 343 342 340 339 339 337 334 334 334 333 331 330 328 329 327 328 329 326 321
302 308 307 303 307 309 310 312 311 307 313 318 327 337 339 342 343 342 341 342 343 341 342 340 340 342 339 338 336 336 334 333 332 332 330 328 328 328 327 326 327 327 326 326
304 307 298 308 314 313 310 311 313 313 315 318 320 336 340 346 344 344 343 344 344 343 341 341 341 338 339 335 336 334 332 331 331 330 327 327 327 327 328 327 327 328 325 326
306 304 307 309 313 312 310 310 314 313 315 318 320 337 322 339 344 346 345 347 345 345 343 343 339 338 337 333 332 331 330 329 329 329 327 327 326 327 329 330 330 329 328 327
308 304 301 312 315 319 317 307 317 317 316 317 324 324 336 345 344 346 345 347 345 345 344 340 337 336 334 331 330 329 328 328 330 330 328 326 328 329 331 331 331 326 329 330
307 305 309 318 319 322 309 311 320 320 320 321 326 329 341 345 344 346 347 346 347 344 338 337 336 334 332 331 329 329 328 328 330 330 328 329 330 332 331 332 331 329 328 330
311 307 303 322 320 315 325 329 329 329 325 330 333 335 342 340 342 346 346 344 342 339 336 336 336 335 330 329 330 330 329 328 328 329 324 324 329 330 331 331 328 328 327 326
310 309 321 324 322 329 327 327 330 330 331 327 331 336 339 341 345 346 345 342 340 338 337 336 336 335 329 330 330 329 328 326 327 329 330 329 329 329 326 329 325 326 325 325
313 317 320 323 324 332 329 328 328 331 333 328 328 336 339 342 344 344 342 340 339 336 334 334 336 334 332 330 331 328 327 327 328 327 328 328 325 324 324 327 321 317 318 320
315 317 319 323 325 328 328 331 333 332 333 331 330 341 344 344 345 343 341 340 337 333 333 332 332 329 329 329 329 326 326 325 324 324 323 325 325 328 326 328 320 320 321 323
312 321 318 316 320 331 333 333 333 334 334 336 343 343 345 344 345 342 341 338 336 335 330 329 330 329 328 329 329 327 325 324 322 320 320 321 321 323 311 312 310 306 305 312
322 323 322 320 323 332 333 333 335 337 336 341 344 346 346 343 344 335 339 337 335 333 332 330 330 327 329 330 330 329 326 323 322 320 322 324 326 326 319 313 305 303 302 301
328 327 320 324 326 332 334 334 336 340 341 343 346 347 346 342 339 336 334 334 334 333 331 330 328 327 329 329 331 329 327 314 323 321 326 323 327 328 323 323 313 314 307 304
324 327 324 326 330 332 334 335 335 337 341 342 345 345 344 340 339 336 335 333 331 328 328 327 327 327 329 328 327 325 325 321 323 325 327 323 326 323 320 321 320 325 324 311
324 325 325 325 326 330 333 334 335 337 339 341 340 341 341 338 338 338 336 332 327 325 326 326 325 324 327 327 324 322 323 323 320 322 323 323 321 320 321 326 325 319 322 319
320 321 323 325 326 329 332 334 337 339 339 340 337 338 338 336 336 334 332 329 332 329 327 326 322 325 326 324 323 320 319 321 320 319 319 320 323 321 322 321 319 320 318 312
324 327 327 330 331 332 333 335 339 339 339 339 336 335 335 334 330 328 327 325 322 323 325 328 327 327 327 324 324 322 321 321 320 320 321 324 322 324 318 321 320 318 317 315
325 326 327 331 333 334 335 337 337 338 336 336 335 334 333 330 325 324 321 321 322 321 323 327 325 324 325 328 326 324 320 320 321 321 322 322 323 320 318 318 318 318 315 314
324 327 328 334 336 338 336 337 336 337 336 333 330 328 325 325 325 321 320 320 321 322 327 324 324 325 326 327 324 321 323 321 319 321 323 319 321 321 321 313 314 315 315 313
325 329 331 335 335 336 337 338 336 334 333 332 329 324 323 324 324 326 323 317 326 324 324 319 320 323 324 325 319 319 321 321 321 319 320 321 317 319 318 317 315 314 313 313
329 330 335 335 334 334 336 333 333 331 330 331 331 329 326 323 324 323 325 321 322 317 319 320 323 325 325 325 319 319 319 321 321 321 321 321 320 319 316 315 313 313 313 313
331 334 334 332 331 331 332 333 333 333 332 332 328 326 323 321 319 317 317 324 322 319 322 321 321 319 321 324 324 323 323 323 319 322 317 322 319 317 315 313 313 313 313 312
339 334 331 331 331 332 329 329 329 331 329 326 323 322 321 318 319 321 323 318 314 317 321 321 320 318 319 323 323 325 322 324 324 321 318 308 322 319 316 314 314 313 312 309
334 329 328 328 326 326 327 326 325 324 324 323 324 325 323 322 321 324 323 322 312 316 320 316 317 317 320 322 324 324 323 325 321 320 318 317 316 317 315 314 314 312 311 309
329 326 327 329 328 327 326 323 322 324 322 321 322 322 321 323 324 325 326 320 320 316 321 322 320 321 323 325 320 320 325 321 321 319 317 316 316 314 314 314 313 312 311 309
327 320 328 327 327 324 323 325 321 319 321 321 320 322 322 323 322 322 318 321 319 318 320 321 319 321 324 327 327 325 324 321 313 318 316 316 315 314 313 312 312 311 310 309

GFSNGP_sfc_thetae_291.txt.gz
Theta_e
299 302 304 302 303 304 300 299 295 298 311 316 317 317 319 325 329 337 337 338 339 340 339 337 337 337 337 336 331 329 328 327 324 324 323 322 320 317 318 318 318 313 309 307
298 303 303 302 303 303 303 304 302 302 302 321 321 322 327 331 329 336 338 338 339 339 337 336 336 337 334 330 329 329 326 325 324 323 322 321 318 317 316 316 317 315 311 307
293 301 301 297 301 302 303 304 304 299 303 308 320 323 324 324 325 336 338 338 338 337 337 336 337 335 330 330 330 328 325 324 323 322 318 317 317 316 315 314 315 314 315 309
296 298 291 301 307 308 306 307 306 304 306 309 327 326 325 324 336 338 338 338 339 338 338 337 337 333 330 329 328 326 323 322 322 319 317 317 316 315 315 315 314 313 312 313
298 298 302 305 307 307 304 304 309 306 309 326 332 334 325 341 341 339 339 340 340 339 338 337 335 331 328 327 325 324 321 321 321 318 316 316 315 315 315 314 314 314 314 311
300 297 296 306 315 316 313 300 321 313 309 324 329 322 324 331 337 340 341 340 340 339 338 335 332 329 325 323 322 320 320 320 321 319 317 316 316 314 315 316 316 315 316 315
301 299 304 313 319 321 307 308 323 324 321 311 319 327 332 323 328 342 341 340 340 339 335 331 329 327 324 322 320 320 321 321 321 319 317 317 316 317 315 316 315 315 316 315
303 299 297 318 319 315 318 322 325 324 330 326 331 330 328 334 338 340 339 339 339 333 330 329 328 326 323 321 322 320 319 320 319 318 320 319 316 315 316 316 315 315 317 317
307 307 316 319 314 320 324 321 323 321 332 324 327 323 335 338 332 339 339 337 333 330 328 328 328 325 322 321 322 320 317 317 317 317 318 317 317 317 316 317 316 316 317 315
310 312 316 319 320 320 319 320 324 327 329 322 318 320 325 328 331 336 336 332 332 329 327 326 327 326 324 322 322 320 318 317 317 318 317 317 317 318 316 315 314 306 304 306
310 313 315 320 319 318 319 322 326 328 332 327 324 324 325 328 337 335 334 332 331 328 328 326 325 323 323 323 322 319 318 317 317 316 313 315 315 314 315 311 305 302 305 307
308 313 313 316 322 321 321 320 322 324 326 328 332 333 337 336 337 334 332 331 329 327 325 324 322 321 322 322 320 318 316 316 314 314 313 314 314 314 311 311 309 306 306 307
316 321 321 320 324 325 322 322 322 322 326 323 329 332 339 336 335 330 331 329 328 325 323 323 321 320 320 320 320 318 315 315 314 314 310 311 312 313 308 310 305 304 301 301
324 324 320 325 318 325 328 327 326 328 328 330 325 326 337 336 332 332 329 328 326 324 323 322 321 320 322 321 321 320 318 315 315 311 314 313 313 316 317 311 309 308 305 302
323 324 322 324 322 322 325 327 324 325 340 336 336 337 335 332 330 329 329 328 325 323 322 321 320 320 322 321 321 318 317 317 312 311 314 313 310 310 310 312 315 311 312 308
314 319 320 321 320 324 327 329 328 330 337 336 335 335 334 332 331 329 327 324 321 320 320 320 320 321 321 322 317 315 315 316 314 310 311 312 312 313 314 315 313 311 311 314
314 313 317 319 325 328 329 329 329 334 335 335 333 333 331 330 328 325 324 324 323 320 320 319 320 320 321 318 315 315 315 312 316 310 308 310 312 315 313 313 311 308 312 310
318 320 319 319 321 327 329 330 336 333 333 333 332 331 328 325 322 323 323 322 319 318 320 320 319 320 318 316 315 316 313 314 312 311 311 312 314 313 310 311 314 314 311 306
315 320 322 327 329 328 329 335 333 332 333 332 330 328 326 325 322 318 317 316 315 314 319 321 324 321 318 319 320 318 317 315 313 313 315 316 315 315 312 312 309 308 307 306
315 322 324 325 333 333 332 333 333 332 332 331 328 325 322 320 317 315 315 314 316 316 321 320 318 316 315 320 321 313 315 316 317 316 315 315 314 312 314 311 310 309 306 305
316 322 324 327 334 332 332 332 331 328 327 327 323 320 319 319 316 316 314 313 315 319 318 319 316 316 316 318 315 311 312 313 316 315 315 314 315 311 314 310 307 306 305 305
319 319 322 334 332 331 333 333 329 328 327 325 323 320 318 316 316 316 317 316 318 317 315 314 315 319 319 324 313 312 314 315 317 316 314 317 314 313 308 306 305 305 305 304
328 327 332 331 328 328 330 328 328 327 324 323 321 320 318 318 317 315 314 315 317 315 313 313 317 318 319 318 316 316 318 318 315 314 315 314 314 312 307 306 304 305 304 303
324 329 328 329 329 328 326 328 328 328 324 323 321 319 318 316 315 317 319 315 313 313 314 314 316 315 319 314 315 315 315 316 317 311 310 307 310 308 307 306 304 304 303 301
328 327 327 326 325 324 323 322 321 320 320 319 319 318 318 317 315 318 318 317 312 315 316 315 315 314 313 315 314 316 318 318 315 311 310 308 308 307 306 305 304 303 302 301
326 325 325 325 324 323 322 321 319 319 318 317 318 319 317 318 319 318 317 315 314 314 317 314 314 313 314 315 316 318 317 316 310 311 310 309 308 305 306 305 304 303 303 302
326 318 325 324 324 323 322 321 319 318 317 317 317 319 319 320 319 318 315 315 314 313 314 316 315 314 316 316 318 318 318 319 313 313 310 310 307 306 305 304 304 303 302 302